SITRO-AIS 8 (ANOKHIN)

Last updated on Wed Oct 29 2025 00:03:53 GMT+0000 (Coordinated Universal Time)

1 57193U 23091AD 25301.62246054 .00016641 00000+0 67550-3 0 9993 2 57193 97.5404 359.7516 0012242 189.7061 170.3941 15.24604611129079
UTC large
Height (km)
Speed (km/s)
/
Latitude / Longitude
Inclination (degrees)
Orbital Period (minutes)
Azimuth
Elevation
Range (km)
Doppler Factor

Next 0 passes for location: London (51.5072 / 0.1276)

Sorry there are no passes over London.